Content
SEND FEEDBACK

Daily
Averages
Monthly
Summary
Switzerland

GENEVA, SWITZERLAND


Home > Europe > Switzerland
Elevation: 1364 feet     Latitude: 46 15N     Longitude: 006 08E

WEATHER
 
SELECT A DAY
Number of Records: 305,246;   Date Range: 7/1/96 - 7/7/14
 
SHARE

PRINT THIS DATA

[ ← Previous Day ]
WEATHER ALMANAC - AUGUST 14, 2013
[ Next Day → ]
[ °C ]   °F
Weather ElementAverageHighLow
Temperature64.9 °F73.4 °F (3:50 pm)53.6 °F (6:20 am)
Dewpoint49.2 °F51.8 °F (12:20 am)46 °F (3:00 pm)
Humidity55.7 %82 % (2:20 am)29 % (3:00 pm)
Barometer30.15 in30.18 in (8:20 am)30.11 in (3:00 pm)
Wind Speed8.1 mph16.1 mph (10:00 am)
Weather ElementAverage
Visibility10.6 mi
Wind DirectionNE (47.6 °)

Weather ElementTotal
Precipitation---
Heating Degree Days1.5 (Base 65)
Growing Degree Days13.5 (Base 50)
Averaged from 63 records on August 14, 2013
WEATHER CONDITIONS BREAKOUT
WIND DIRECTION BREAKOUT
WEATHER BY HOUR - AUGUST 14, 2013
[ °C ]   °F
Local TimeTemperatureDewpointHumidityBarometerVisibilityWind DirectionWind SpeedGust SpeedPrecipitationEventsConditions
12:20 AM66.2 °F51.8 °F60 %30.15 inNE (40°)8.1 mphClear
12:50 AM64.4 °F51.8 °F64 %30.15 inNNE (30°)4.6 mphClear
1:20 AM64.4 °F51.8 °F64 %30.15 inENE (60°)6.9 mphClear
1:50 AM60.8 °F51.8 °F72 %30.15 inVariable2.3 mphClear
2:00 AM58.0 °F51.0 °F71 %30.15 in31.0 miNW (310°)2.3 mphClear
2:20 AM57.2 °F51.8 °F82 %30.15 inVariable1.2 mphClear
2:50 AM57.2 °F51.8 °F82 %30.15 inCalmClear
3:00 AM57.0 °F49.0 °F68 %30.16 inWNW (300°)1.2 mph
3:50 AM57.2 °F50.0 °F77 %30.15 inVariable2.3 mphClear
4:00 AM58.0 °F47.0 °F58 %30.15 inNNW (340°)3.5 mph
4:20 AM57.2 °F48.2 °F72 %30.15 inVariable3.5 mphClear
4:50 AM57.2 °F48.2 °F72 %30.15 inCalmClear
5:20 AM55.4 °F48.2 °F77 %30.15 inCalmClear
5:50 AM55.4 °F48.2 °F77 %30.15 inVariable2.3 mphClear
6:00 AM54.0 °F48.0 °F74 %30.16 inNNW (330°)2.3 mph
6:20 AM53.6 °F48.2 °F82 %30.15 inVariable1.2 mphClear
6:50 AM53.6 °F48.2 °F82 %30.15 inCalmClear
7:00 AM54.0 °F47.0 °F71 %30.17 inNorth3.5 mph
7:20 AM55.4 °F48.2 °F77 %30.15 inNorth (10°)4.6 mphClear
7:50 AM59.0 °F50.0 °F72 %30.15 inNorth (10°)4.6 mphClear
8:00 AM60.0 °F49.0 °F58 %30.15 in37.0 miNorth (10°)4.6 mphClear
8:20 AM62.6 °F50.0 °F63 %30.18 inVariable3.5 mphClear
8:50 AM64.4 °F50.0 °F59 %30.18 inNNE (20°)6.9 mphClear
9:00 AM64.0 °F49.0 °F47 %30.15 inNNE (30°)9.2 mph
9:20 AM64.4 °F50.0 °F59 %30.18 inNE (40°)10.4 mphClear
9:50 AM64.4 °F50.0 °F59 %30.18 in6.2 miNE (40°)12.7 mphPartly Cloudy
10:00 AM64.0 °F48.0 °F45 %30.15 inNE (50°)16.1 mph
10:20 AM66.2 °F50.0 °F56 %30.18 in6.2 miNE (40°)15.0 mphPartly Cloudy
10:50 AM66.2 °F48.2 °F52 %30.18 in6.2 miNE (50°)16.1 mphPartly Cloudy
11:20 AM68.0 °F50.0 °F52 %30.18 in6.2 miENE (60°)13.8 mphPartly Cloudy
11:50 AM68.0 °F50.0 °F52 %30.18 in6.2 miNE (50°)15.0 mphPartly Cloudy
12:00 PM68.0 °F48.0 °F38 %30.14 inNE (40°)12.7 mph
12:20 PM69.8 °F50.0 °F49 %30.18 in6.2 miNE (40°)13.8 mphPartly Cloudy
12:50 PM69.8 °F48.2 °F46 %30.15 in6.2 miNE (40°)13.8 mphPartly Cloudy
1:00 PM70.0 °F49.0 °F36 %30.13 inNE (40°)15.0 mph
1:20 PM69.8 °F50.0 °F49 %30.15 in6.2 miNE (50°)11.5 mphPartly Cloudy
1:50 PM71.6 °F50.0 °F46 %30.15 in6.2 miNNE (30°)11.5 mphPartly Cloudy
2:00 PM70.0 °F48.0 °F34 %30.12 in31.0 miNE (40°)11.5 mphScattered Clouds
2:20 PM71.6 °F50.0 °F46 %30.15 in6.2 miENE (60°)12.7 mphScattered Clouds
2:50 PM71.6 °F48.2 °F43 %30.15 in6.2 miENE (60°)9.2 mphScattered Clouds
3:00 PM72.0 °F46.0 °F29 %30.11 inENE (60°)11.5 mph
3:20 PM71.6 °F48.2 °F43 %30.15 in6.2 miENE (70°)11.5 mphScattered Clouds
3:50 PM73.4 °F48.2 °F41 %30.15 in6.2 miNE (40°)12.7 mphScattered Clouds
4:00 PM72.0 °F47.0 °F30 %30.11 inNE (40°)10.4 mph
4:20 PM73.4 °F48.2 °F41 %30.15 in6.2 miENE (60°)10.4 mphScattered Clouds
4:50 PM73.4 °F48.2 °F41 %30.15 in6.2 miNE (50°)11.5 mphScattered Clouds
5:20 PM73.4 °F48.2 °F41 %30.15 in6.2 miNE (40°)11.5 mphScattered Clouds
5:50 PM73.4 °F48.2 °F41 %30.15 in6.2 miNE (50°)12.7 mphPartly Cloudy
6:00 PM72.0 °F49.0 °F34 %30.11 inNE (40°)15.0 mph
6:20 PM71.6 °F50.0 °F46 %30.15 in6.2 miNE (50°)15.0 mphPartly Cloudy
6:50 PM71.6 °F50.0 °F46 %30.15 in6.2 miNE (40°)12.7 mphPartly Cloudy
7:00 PM71.0 °F48.0 °F33 %30.11 inNE (40°)12.7 mph
7:20 PM71.6 °F50.0 °F46 %30.15 in6.2 miNE (40°)13.8 mphPartly Cloudy
7:50 PM69.8 °F48.2 °F46 %30.15 in6.2 miNNE (30°)10.4 mphPartly Cloudy
8:00 PM69.0 °F48.0 °F36 %30.12 in44.0 miNNE (20°)9.2 mphScattered Clouds
8:20 PM68.0 °F50.0 °F52 %30.15 in6.2 miNNE (20°)8.1 mphPartly Cloudy
8:50 PM66.2 °F50.0 °F56 %30.15 in6.2 miNorth (10°)5.8 mphPartly Cloudy
9:50 PM62.6 °F50.0 °F63 %30.18 inNorth (10°)3.5 mphClear
10:00 PM62.0 °F49.0 °F53 %30.17 inNorth3.5 mph
10:20 PM62.6 °F50.0 °F63 %30.18 inNorth (10°)3.5 mphClear
10:50 PM62.6 °F50.0 °F63 %30.18 inNNE (20°)5.8 mphClear
11:20 PM62.6 °F48.2 °F59 %30.18 inNNE (30°)5.8 mphClear
11:50 PM60.8 °F48.2 °F63 %30.18 inNorth (10°)4.6 mphClear
Hourly data recorded from LSGG, located miles away from Geneva, Switzerland







STORIES FROM OUR PARTNERS